Location: Newark
(48.1500°N, 2.9667°W)
Time: 19:12:51
(UTC+00:00)

A-11 Canister half - Pass Details

Date: 24 January 2020
Orbit: 1525 x 1684 km, 47.3° (Epoch: 17 February)

Event Time Altitude Azimuth Distance (km) Brightness Sun altitude
Rises 16:34:12 0° 199° (SSW) 4,660 12.5 2.6°
Reaches altitude 10° 16:37:45 10° 188° (S) 3,686 11.7 2.1°
Maximum altitude 16:45:12 28° 134° (SE) 2,568 10.1 1.0°
Drops below altitude 10° 16:52:47 10° 80° (E) 3,763 10.5 -0.1°
Enters shadow 16:56:21 - 70° (ENE) 4,749 10.9 -0.6°
Sets 16:56:26 0° 70° (ENE) 4,774 - -0.6°
